Le nostre stazioni meteo in Italia

Pubblicità
Il mio iltempo24.it
Besancon, Francia (7288): Temperatura & dewpoint: 22.05.2018 09:00:00 - 28.05.2018 09:00:00 (CEST)Besancon, Francia (7288): Temperatura 5cm: 22.05.2018 09:00:00 - 28.05.2018 09:00:00 (CEST)Besancon, Francia (7288): Temperatura -20cm & Temperatura -100cm: 22.05.2018 09:00:00 - 28.05.2018 09:00:00 (CEST)Besancon, Francia (7288): velocità del vento & gusts: 22.05.2018 09:00:00 - 28.05.2018 09:00:00 (CEST)Besancon, Francia (7288): direzione del vento: 22.05.2018 09:00:00 - 28.05.2018 09:00:00 (CEST)Besancon, Francia (7288): reduced air pressure: 22.05.2018 09:00:00 - 28.05.2018 09:00:00 (CEST)Besancon, Francia (7288): ore di luce: 22.05.2018 09:00:00 - 28.05.2018 09:00:00 (CEST)Besancon, Francia (7288): precipitazioni: 22.05.2018 09:00:00 - 28.05.2018 09:00:00 (CEST)
Data & Tempo tt [°C] td [°C] tt 5cm [°C] tt -20cm [°C] tt -100cm [°C] ff [km/h] ff [kn] fx [km/h] fx [kn] dd ppp [hPa] sd [min] rr [mm]
28.05.2018 09:00:00 17,2 15,4 16,9 19,9 15,1 2 1 7 4 NE 1016,8 12 0,0
28.05.2018 08:00:00 15,6 15,0 13,6 20,1 15,1 0 0 9 5 N 1016,6 43 0,0
28.05.2018 07:00:00 14,2 13,9 11,4 20,2 15,1 3 2 6 4 NNE 1016,7 19 0,0
28.05.2018 06:00:00 14,3 13,8 11,7 20,4 15,1 0 0 14 7 N 1016,5 0 0,2
28.05.2018 05:00:00 14,4 13,9 12,4 20,5 15,0 0 0 4 2 N 1016,1 0 0,0
28.05.2018 04:00:00 14,4 13,9 11,4 20,6 15,1 2 1 6 3 N 1016,4 0 0,0
28.05.2018 03:00:00 14,9 14,1 12,2 20,7 15,0 0 0 9 5 N 1017,2 0 0,0
28.05.2018 02:00:00 15,3 14,5 13,1 20,8 15,0 3 1 8 5 NE 1017,5 0 0,0
28.05.2018 01:00:00 15,5 14,7 13,5 20,9 15,0 0 0 13 7 N 1018,1 0 0,2
28.05.2018 00:00:00 16,2 15,4 15,5 21,0 15,0 4 2 8 4 NNE 1018,5 0 0,6
27.05.2018 23:00:00 16,3 15,2 15,6 21,0 15,0 0 0 7 4 N 1019,4 0 0,8
27.05.2018 22:00:00 17,0 14,8 15,7 20,9 15,0 3 2 39 21 SSE 1018,9 0 0,8
27.05.2018 21:00:00 20,0 15,0 16,9 20,9 15,0 16 9 46 25 SO 1017,0 0 0,0
27.05.2018 20:00:00 24,2 15,4 21,0 20,7 14,9 0 0 12 6 N 1013,6 2 0,0
27.05.2018 19:00:00 26,6 15,6 26,9 20,6 14,9 5 3 20 11 NE 1013,0 30 0,0
27.05.2018 18:00:00 26,9 15,3 29,2 20,4 14,9 5 3 24 13 NE 1013,5 46 0,0
27.05.2018 17:00:00 27,8 15,8 33,9 20,2 14,9 5 3 22 12 NE 1013,6 60 0,0
27.05.2018 16:00:00 27,2 14,9 31,0 20,0 14,9 4 2 13 7 NNE 1014,5 30 0,0
27.05.2018 15:00:00 26,2 15,3 28,4 19,9 14,9 5 3 14 8 NNE 1015,3 12 0,2
27.05.2018 14:00:00 24,2 15,9 26,6 19,8 14,8 3 2 14 8 ENE 1016,5 0 0,0
27.05.2018 13:00:00 23,8 16,6 26,7 19,8 14,8 6 3 13 7 N 1016,6 0 0,0
27.05.2018 12:00:00 23,4 16,2 27,0 19,7 14,8 3 1 16 9 NNE 1017,1 10 0,0
27.05.2018 11:00:00 23,3 15,6 22,6 19,8 14,8 4 2 12 7 SE 1017,3 27 0,0
27.05.2018 10:00:00 19,6 15,7 19,8 19,9 14,8 2 1 5 3 NNE 1017,8 0 0,0
27.05.2018 09:00:00 19,0 15,3 17,6 19,9 14,8 2 1 5 3 NNE 1018,9 0 0,0
27.05.2018 08:00:00 17,5 14,6 16,0 20,0 14,8 3 2 5 3 NNE 1018,6 0 0,0
27.05.2018 07:00:00 17,1 14,7 15,5 20,2 14,8 5 3 8 4 NNE 1018,0 0 0,0
27.05.2018 06:00:00 16,9 14,2 15,2 20,2 14,7 0 0 5 3 N 1017,7 0 0,0
27.05.2018 05:00:00 16,8 14,3 13,3 20,4 14,7 3 1 5 3 NNE 1016,9 0 0,0
27.05.2018 04:00:00 17,7 14,0 13,6 20,5 14,7 2 1 8 4 NE 1016,2 0 0,0
27.05.2018 03:00:00 18,3 13,6 14,3 20,6 14,7 0 0 7 4 N 1015,9 0 0,0
27.05.2018 02:00:00 19,5 13,2 15,4 20,6 14,7 0 0 10 6 N 1016,1 0 0,2
27.05.2018 01:00:00 21,0 12,7 17,4 20,7 14,7 0 0 16 9 N 1016,4 0 0,0
27.05.2018 00:00:00 21,5 13,4 16,7 20,7 14,7 2 1 9 5 N 1016,3 0 0,0
26.05.2018 23:00:00 21,9 13,0 16,7 20,7 14,7 2 1 8 5 NNE 1016,7 0 0,0
26.05.2018 22:00:00 22,5 12,7 18,4 20,7 14,7 0 0 7 4 N 1017,2 0 0,0
26.05.2018 21:00:00 23,3 13,7 19,7 20,7 14,7 0 0 11 6 N 1016,9 32 0,0
26.05.2018 20:00:00 25,5 13,0 23,8 20,5 14,6 4 2 21 11 NE 1016,3 41 0,0
26.05.2018 19:00:00 27,1 14,8 26,0 20,4 14,6 4 2 20 11 NNE 1015,8 14 0,0
26.05.2018 18:00:00 26,7 15,4 27,2 20,2 14,6 4 2 19 10 NE 1015,9 22 0,0
26.05.2018 17:00:00 27,1 15,5 29,7 20,0 14,6 3 2 15 8 ENE 1016,1 8 0,0
26.05.2018 16:00:00 27,3 14,0 31,5 19,8 14,6 3 2 11 6 NNE 1016,6 35 0,0
26.05.2018 15:00:00 25,3 15,3 26,7 19,7 14,6 0 0 7 4 N 1017,6 0 0,0
26.05.2018 14:00:00 24,9 14,7 28,8 19,5 14,5 3 1 16 9 NO 1018,3 0 0,0
26.05.2018 13:00:00 25,6 12,8 29,3 19,4 14,5 11 6 22 12 OSO 1018,7 45 0,0
26.05.2018 12:00:00 24,3 14,7 27,8 19,3 14,5 10 5 21 12 SO 1018,8 44 0,0
26.05.2018 11:00:00 22,9 13,7 25,6 19,4 14,5 9 5 26 14 SO 1018,6 28 0,0
26.05.2018 10:00:00 21,5 14,4 23,9 19,4 14,5 0 0 5 3 N 1017,9 11 0,0
26.05.2018 09:00:00 20,4 14,3 17,6 19,6 14,5 0 0 5 3 N 1017,1 39 0,0
26.05.2018 08:00:00 16,8 12,7 13,8 19,7 14,5 0 0 5 3 N 1017,1 58 0,0
26.05.2018 07:00:00 15,5 12,3 11,8 19,9 14,5 0 0 3 2 N 1016,8 8 0,0
26.05.2018 06:00:00 15,6 11,8 11,4 20,0 14,4 0 0 4 2 N 1016,4 0 0,0
26.05.2018 05:00:00 16,2 11,8 11,4 20,1 14,5 0 0 5 3 N 1016,2 0 0,0
26.05.2018 04:00:00 16,4 11,8 11,9 20,2 14,4 0 0 3 2 N 1016,3 0 0,0
26.05.2018 03:00:00 17,3 11,3 12,8 20,3 14,4 0 0 4 2 N 1016,0 0 0,0
26.05.2018 02:00:00 17,9 11,7 14,4 20,4 14,4 0 0 4 2 N 1015,9 0 0,0
26.05.2018 01:00:00 17,8 11,1 13,2 20,5 14,4 2 1 5 3 NNE 1015,9 0 0,0
26.05.2018 00:00:00 18,6 11,4 13,9 20,5 14,4 3 1 5 3 NNE 1015,7 0 0,0
25.05.2018 23:00:00 18,0 12,4 14,3 20,5 14,4 4 2 8 5 NNE 1015,1 0 0,0
25.05.2018 22:00:00 19,5 13,0 15,5 20,5 14,4 2 1 6 3 NNE 1015,4 0 0,0
25.05.2018 21:00:00 21,4 13,1 17,4 20,4 14,4 2 1 7 4 NNE 1014,9 0 0,0
25.05.2018 20:00:00 23,6 12,3 21,5 20,2 14,4 0 0 14 8 N 1014,6 23 0,0
25.05.2018 19:00:00 24,9 13,8 25,8 20,0 14,4 4 2 15 8 NE 1014,4 15 0,0
25.05.2018 18:00:00 25,5 12,0 26,0 19,7 14,3 6 3 16 9 NNE 1014,4 40 0,0
25.05.2018 17:00:00 27,2 12,4 35,7 19,4 14,3 5 3 19 11 NNE 1014,5 60 0,0
25.05.2018 16:00:00 26,2 11,9 36,2 19,1 14,3 9 5 24 13 N 1015,1 60 0,0
25.05.2018 15:00:00 26,1 12,9 31,4 18,8 14,3 5 3 20 11 NNE 1015,3 56 0,0
25.05.2018 14:00:00 25,6 11,0 38,1 18,5 14,3 6 3 18 10 N 1015,6 60 0,0
25.05.2018 13:00:00 25,3 10,3 36,1 18,4 14,3 4 2 13 7 ESE 1015,7 60 0,0
25.05.2018 12:00:00 24,0 12,6 34,0 18,2 14,3 6 3 15 8 NNE 1016,0 60 0,0
25.05.2018 11:00:00 22,7 13,2 30,8 18,2 14,3 4 2 11 6 NNE 1016,4 60 0,0
25.05.2018 10:00:00 21,5 12,3 26,0 18,3 14,3 2 1 6 3 ESE 1016,8 60 0,0
25.05.2018 09:00:00 19,2 12,7 14,8 18,4 14,3 0 0 6 3 N 1017,1 60 0,0
25.05.2018 08:00:00 14,5 12,7 12,2 18,6 14,3 0 0 5 3 N 1017,4 60 0,0
25.05.2018 07:00:00 12,6 12,0 9,1 18,7 14,2 0 0 5 3 N 1017,5 36 0,0
25.05.2018 06:00:00 12,1 11,6 8,6 18,9 14,3 0 0 6 3 N 1017,3 0 0,0
25.05.2018 05:00:00 12,5 12,0 8,8 19,1 14,2 0 0 7 4 N 1017,4 0 0,0
25.05.2018 04:00:00 12,6 11,8 8,8 19,2 14,2 4 2 6 3 NNE 1017,4 0 0,0
25.05.2018 03:00:00 13,1 11,8 9,1 19,4 14,2 2 1 4 2 NNE 1017,6 0 0,0
25.05.2018 02:00:00 13,4 12,5 9,1 19,5 14,2 0 0 6 3 N 1017,7 0 0,0
25.05.2018 01:00:00 13,8 12,4 9,7 19,6 14,2 4 2 6 3 NNE 1018,0 0 0,0
25.05.2018 00:00:00 14,4 12,8 10,2 19,6 14,2 0 0 4 2 N 1018,1 0 0,0
24.05.2018 23:00:00 15,6 13,3 11,0 19,6 14,2 0 0 5 3 N 1017,7 0 0,0
24.05.2018 22:00:00 17,8 13,1 12,1 19,6 14,2 2 1 3 2 NNE 1017,0 0 0,0
24.05.2018 21:00:00 21,3 11,6 15,6 19,4 14,2 0 0 9 5 N 1015,9 29 0,0
24.05.2018 20:00:00 23,7 11,7 24,8 19,2 14,2 5 3 13 7 O 1015,2 49 0,0
24.05.2018 19:00:00 24,2 11,8 28,4 19,0 14,2 6 3 16 9 O 1014,9 60 0,0
24.05.2018 18:00:00 24,3 11,9 26,2 18,7 14,2 6 4 18 10 O 1015,1 53 0,0
24.05.2018 17:00:00 24,3 12,9 27,5 18,4 14,2 6 4 17 9 O 1015,3 51 0,0
24.05.2018 16:00:00 23,9 12,8 27,7 18,1 14,1 6 4 16 9 O 1015,6 39 0,0
24.05.2018 15:00:00 22,9 11,9 28,4 17,8 14,2 5 3 16 9 O 1016,3 48 0,0
24.05.2018 14:00:00 22,3 13,6 26,2 17,6 14,1 8 4 16 9 OSO 1016,7 42 0,0
24.05.2018 13:00:00 22,0 13,4 24,6 17,4 14,1 5 3 14 7 OSO 1017,2 45 0,0
24.05.2018 12:00:00 20,4 12,4 24,7 17,3 14,1 4 2 13 7 OSO 1017,9 42 0,0
24.05.2018 11:00:00 19,9 12,9 26,1 17,3 14,1 4 2 11 6 SO 1018,2 48 0,0
24.05.2018 10:00:00 18,4 13,3 22,1 17,3 14,1 4 2 11 6 SO 1018,4 60 0,0
24.05.2018 09:00:00 16,3 13,4 13,2 17,4 14,1 3 2 6 4 SE 1018,6 60 0,0
24.05.2018 08:00:00 13,4 13,1 12,5 17,4 14,1 0 0 4 2 N 1018,7 60 0,0
24.05.2018 07:00:00 13,4 13,2 13,4 17,6 14,1 0 0 5 3 N 1018,5 5 0,0
24.05.2018 06:00:00 13,3 13,1 13,2 17,7 14,1 0 0 5 3 N 1018,6 0 0,0
24.05.2018 05:00:00 13,7 13,5 13,5 17,8 14,1 0 0 4 2 N 1018,3 0 0,0
24.05.2018 04:00:00 13,8 13,6 12,1 17,8 14,1 0 0 4 2 N 1018,5 0 0,0
24.05.2018 03:00:00 14,2 14,0 10,1 17,9 14,1 0 0 6 3 N 1018,4 0 0,0
24.05.2018 02:00:00 14,8 14,3 11,1 17,9 14,0 0 0 3 2 N 1018,2 0 0,0
24.05.2018 01:00:00 15,6 15,3 14,9 18,0 14,1 2 1 6 3 NNE 1018,3 0 0,0
24.05.2018 00:00:00 15,9 15,6 15,0 18,0 14,0 0 0 7 4 N 1018,4 0 0,0
23.05.2018 23:00:00 16,0 15,7 15,0 18,0 14,0 0 0 5 3 N 1018,3 0 0,0
23.05.2018 22:00:00 16,0 15,4 15,3 18,0 14,1 0 0 3 1 N 1018,3 0 0,0
23.05.2018 21:00:00 16,3 15,7 15,9 17,9 14,0 2 1 8 4 SSE 1017,6 0 0,4
23.05.2018 20:00:00 16,8 15,8 16,1 17,7 14,0 4 2 10 5 SO 1017,2 0 4,7
23.05.2018 19:00:00 17,9 14,0 16,1 17,6 14,0 7 4 19 11 O 1016,8 20 0,8
23.05.2018 18:00:00 19,3 14,8 22,5 17,4 14,0 6 4 15 8 O 1016,5 27 0,0
23.05.2018 17:00:00 20,0 13,9 24,0 17,3 13,9 4 2 8 4 OSO 1016,4 23 0,0
23.05.2018 16:00:00 18,3 13,6 22,8 17,2 14,0 3 1 10 6 SSO 1017,2 0 0,0
23.05.2018 15:00:00 17,9 14,2 20,8 17,0 13,9 4 2 9 5 O 1017,6 0 0,0
23.05.2018 14:00:00 17,3 13,8 20,9 17,0 13,9 6 3 11 6 OSO 1018,0 0 0,0
23.05.2018 13:00:00 17,3 13,6 20,0 16,9 13,9 4 2 11 6 O 1018,0 0 0,0
23.05.2018 12:00:00 16,9 14,2 20,0 16,9 13,9 4 2 8 4 O 1018,0 0 0,0
23.05.2018 11:00:00 16,2 13,7 16,6 16,9 13,9 2 1 6 3 NE 1018,0 0 0,0
23.05.2018 10:00:00 15,1 14,6 15,6 17,0 13,9 2 1 4 2 ESE 1018,0 0 0,2
23.05.2018 09:00:00 14,2 13,9 13,9 17,1 13,9 0 0 4 2 N 1017,9 0 0,2
23.05.2018 08:00:00 13,4 13,4 12,8 17,2 13,9 0 0 3 2 N 1017,7 0 0,2
23.05.2018 07:00:00 12,6 12,6 10,2 17,3 13,9 0 0 3 1 N 1017,2 0 0,0
23.05.2018 06:00:00 11,5 11,3 9,0 17,5 13,9 0 0 3 2 N 1016,6 0 0,0
23.05.2018 05:00:00 11,5 11,3 8,4 17,6 13,8 2 1 4 2 NNE 1016,3 0 0,0
23.05.2018 04:00:00 11,8 11,5 8,4 17,7 13,8 3 2 4 2 N 1016,2 0 0,0
23.05.2018 03:00:00 12,6 12,4 8,5 17,8 13,8 0 0 3 1 N 1016,1 0 0,0
23.05.2018 02:00:00 12,9 12,4 9,6 17,9 13,8 0 0 10 5 N 1016,1 0 0,0
23.05.2018 01:00:00 13,7 13,1 12,5 18,0 13,8 6 3 15 8 N 1016,0 0 0,0
23.05.2018 00:00:00 14,1 13,6 13,2 18,1 13,8 0 0 4 2 N 1015,1 0 0,0
22.05.2018 23:00:00 14,1 13,6 13,2 18,1 13,8 2 1 7 4 SE 1015,5 0 0,0
22.05.2018 22:00:00 14,1 13,1 13,3 18,2 13,8 5 3 9 5 NNO 1014,7 0 0,0
22.05.2018 21:00:00 14,5 13,7 14,0 18,2 13,8 2 1 12 6 SSE 1013,9 0 3,7
22.05.2018 20:00:00 14,6 13,8 13,9 18,1 13,8 4 2 19 10 SSO 1014,0 0 3,4
22.05.2018 19:00:00 15,3 13,3 13,7 17,9 13,8 4 2 38 21 SSO 1013,1 0 12,7
22.05.2018 18:00:00 21,7 12,3 20,2 17,7 13,8 3 2 15 8 NO 1011,1 0 0,0
22.05.2018 17:00:00 22,6 12,2 24,5 17,4 13,7 8 4 24 13 NNO 1010,8 11 0,0
22.05.2018 16:00:00 23,5 12,8 27,0 17,2 13,7 7 4 21 11 O 1010,7 32 0,0
22.05.2018 15:00:00 23,3 12,6 25,5 17,0 13,7 6 3 18 10 NO 1011,0 29 0,0
22.05.2018 14:00:00 22,3 11,7 27,5 16,8 13,7 6 4 16 9 NO 1011,3 45 0,0
22.05.2018 13:00:00 22,2 13,5 32,2 16,6 13,7 4 2 15 8 SO 1011,7 60 0,0
22.05.2018 12:00:00 21,3 13,2 27,5 16,6 13,7 3 2 11 6 SSE 1012,1 51 0,0
22.05.2018 11:00:00 19,6 13,3 25,7 16,6 13,7 3 1 11 6 SSO 1012,5 47 0,0
22.05.2018 10:00:00 18,6 13,2 19,1 16,7 13,7 4 2 14 7 OSO 1012,5 60 0,0
22.05.2018 09:00:00 16,2 12,4 12,6 16,8 13,7 4 2 13 7 SO 1012,9 51 0,0

tt = Temperatura
td = dewpoint
tt 5cm = Temperatura 5cm
tt -20cm = Temperatura -20cm
tt -100cm = Temperatura -100cm
ff = velocità del vento
fx = gusts
dd = direzione del vento
ppp = reduced air pressure
sd = ore di luce
rr = precipitazioni

Stazioni seguenti

WeatherPro
AMSI
MeteoEarth